Regional Weather Roundup
Issued by NWS Bismarck, ND

Home | Current Version | Previous Version | Text Only | Print | Product List | Glossary On
Versions: 1 2 3 4 5 6 7 8 9 10 11 12 13 14 15 16 17 18 19 20 21 22 23 24 25 26 27 28 29 30 31 32 33 34 35 36 37 38 39 40 41 42 43 44 45 46 47 48 49 50
000
ASUS43 KBIS 031920
RWRBIS

NWR BROADCAST TEXT
NATIONAL WEATHER SERVICE BISMARCK ND
200 PM CDT SUN MAY 03 2015

NOTE: "FAIR" INDICATES FEW OR NO CLOUDS BELOW 12,000 FEET WITH NO
SIGNIFICANT WEATHER AND/OR OBSTRUCTIONS TO VISIBILITY.


CITY           SKY/WX    TMP DP  RH WIND       PRES   REMARKS
WILLISTON      LGT RAIN  62  23  22 NW16G26   30.04S
MINOT          SUNNY     61  25  25 W18G31    29.98F
MINOT AFB      SUNNY     63  27  25 W18G28    29.97F
BISMARCK       MOSUNNY   66  27  23 NW17G25   29.99S
DICKINSON      MOSUNNY   61  27  27 NW17      30.01F
GARRISON         N/A     63  24  22 NW21G31   29.99F
HETTINGER ARPT PTSUNNY   59  32  36 N7        30.04S
JAMESTOWN      PTSUNNY   66  23  19 N21G28    29.93S
BEACH          CLOUDY    57  28  33 NW10      30.06F
CARRINGTON     FAIR      64  23  20 NW22G35   29.95S
CROSBY         FAIR      57  27  30 W14G23    30.02F
HARVEY         FAIR      63  23  22 NW17G29   29.96F
HAZEN          FAIR      63  19  19 NW20G29   30.02S
LINTON         FAIR      66  27  22 N17       29.98R
MANDAN         FAIR      63  30  29 N15G24    30.00S
OAKES            N/A     63  28  27 N17G24    29.94S
STANLEY        FAIR      59  25  27 NW14G28   30.02S
TIOGA          FAIR      57  23  26 NW17G25   30.05S
WATFORD CITY   FAIR      59  25  27 N15G23    30.02S
$$

CITY           SKY/WX    TMP DP  RH WIND       PRES   REMARKS
GRAND FORKS    PTSUNNY   67  27  22 NW14G25   29.89F
GRAND FORKS AF PTSUNNY   68  23  18 N18G30    29.89F
DEVILS LAKE    SUNNY     63  27  25 NW21G28   29.92S
FARGO          CLOUDY    66  27  23 N17G23    29.92R
CANDO          FAIR      63  27  25 NW17G23   29.94S
CAVALIER       FAIR      64  28  25 NW22G30   29.89S
GRAFTON        FAIR      64  28  25 NW22G28   29.90S
GWINNER        PTCLDY    64  32  29 N14G20    29.95S
LANGDON        FAIR      64  28  25 NW20G26   29.92S
WALHALLA       FAIR      63  28  27 NW18G26   29.90S
$$

CITY           SKY/WX    TMP DP  RH WIND       PRES   REMARKS
ABERDEEN       CLOUDY    70  33  25 N22G31    29.93R
MOBRIDGE       PTSUNNY   64  33  31 N15G25    29.95R
BUFFALO          N/A     54  36  50 N7        30.00S
RAPID CITY     SUNNY     67  37  33 N17       30.00F
GLASGOW        MOSUNNY   57  27  31 N10       30.06F
SIDNEY         SUNNY     63  19  19 NW5G23    30.05S
WOLF POINT     MOSUNNY   61  24  24 W6        30.05F
GLENDIVE       MOSUNNY   61  27  27 W7        30.06S
MILES CITY     CLOUDY    58  30  34 E6        30.05F
BAKER          SUNNY     61  30  31 VRB6      30.05S
$$

CITY           SKY/WX    TMP DP  RH WIND       PRES   REMARKS
BILLINGS       MOSUNNY   59  29  31 E14       30.03F
GREAT FALLS    SUNNY     57  31  37 VRB3      30.00F
REGINA         PTSUNNY   55  32  41 NW14G20   30.03S
ESTEVAN        MOSUNNY   57  32  38 NW14G23   30.01S
$$



USA.gov is the U.S. government's official web portal to all federal, state and local government web resources and services.